Hourly Data Report for September 27, 2017

All times are specified in Local Standard Time (LST). Add 1 hour to adjust for Daylight Saving Time where and when it is observed.

GRISE FIORD CLIMATE
NUNAVUT

76°25'22.040" N
82°54'08.020" W
44.50 m
2402351
71971
NGC

Download Data

Hourly Data (September 2017)
Hourly Data Report for September 27, 2017
Temp Definition
°C
Dew Point Temp Definition
°C
Rel Hum Definition
%
Wind Dir Definition
10's deg

Wind Spd Definition
km/h
Visibility Definition
km
Stn Press Definition
kPa
Hmdx Definition


Wind Chill Definition


Weather Definition


TIME
00:00 -3.8 -6.0 85 28 7   100.50   -7 LegendNANA
01:00 -3.8 -6.2 83 22 6   100.50   -6 LegendNANA
02:00 -4.0 -6.3 84 23 4   100.48   -6 LegendNANA
03:00 -4.4 -6.6 84 7 2   100.46   -5 LegendNANA
04:00 -4.9 -6.8 87 5 10   100.46   -9 LegendNANA
05:00 -5.7 -7.3 89 5 25   100.43   -13 LegendNANA
06:00 -5.5 -7.8 84 2 8   100.45   -9 LegendNANA
07:00 -5.6 -7.6 86 34 2   100.40   -7 LegendNANA
08:00 -5.3 -6.9 89 35 6   100.41   -8 LegendNANA
09:00 -5.4 -7.2 87 18 10   100.35   -10 LegendNANA
10:00 -4.6 -8.5 74 3 2   100.35   -5 LegendNANA
11:00 -4.4 -7.3 80 0 1   100.32   -5 LegendNANA
12:00 -4.1 -6.6 83 19 2   100.31   -5 LegendNANA
13:00 -3.5 -6.8 78   0   100.30     LegendNANA
14:00 -3.7 -6.1 83 22 2   100.28   -5 LegendNANA
15:00 -3.7 -5.9 84 16 7   100.25   -7 LegendNANA
16:00 -4.0 -5.8 88 14 2   100.22   -5 LegendNANA
17:00 -4.3 -5.9 88 8 3   100.16   -6 LegendNANA
18:00 -4.4 -6.0 89 16 3   100.10   -6 LegendNANA
19:00 -4.3 -6.0 88 18 2   100.05   -5 LegendNANA
20:00 -4.4 -6.6 85 26 4   99.97   -6 LegendNANA
21:00 -4.2 -6.0 87 5 8   99.88   -8 LegendNANA
22:00 -5.0 -6.8 87 4 6   99.87   -8 LegendNANA
23:00 -5.5 -7.3 87 4 8   99.78   -9 LegendNANA

Notes on Data Quality.

Legend

  • E = Estimated
  • M = Missing
  • NA = Not Available
  • ‡ = Partner data that is not subject to review by the National Climate Archives
Date modified: